Location: Newark
(45.8667°N, 9.7333°E)
Time: 03:28:22
(UTC+00:00)

Transit 4A - Pass Details

Date: 26 January 2020
Orbit: 872 x 973 km, 66.8° (Epoch: 17 February)

Event Time Altitude Azimuth Distance (km) Brightness Sun altitude
Rises 15:13:10 0° 320° (NW) 3,470 10.9 8.5°
Reaches altitude 10° 15:15:49 10° 313° (NW) 2,528 10.3 8.2°
Maximum altitude 15:21:05 36° 248° (WSW) 1,348 10.0 7.5°
Drops below altitude 10° 15:26:22 10° 183° (S) 2,538 10.9 6.7°
Sets 15:29:02 0° 175° (S) 3,486 11.4 6.3°
